Dalhart, TX

8:00 AM CDT on August 23, 2017 (GMT -0500)
Dalhart Municipal

Weather History for KDHT - February, 2013

Change the Weather History Date:

Saturday, February 16, 2013

  Actual Average Record
Temperature  
Mean Temperature 42 °F 38 °F  
Max Temperature 60 °F 53 °F 80 °F (2011)
Min Temperature 24 °F 23 °F 5 °F (1993)
Degree Days  
Heating Degree Days 23 27  
Month to date heating degree days 408 454  
Since 1 July heating degree days 2974 3336  
Cooling Degree Days 0 0  
Month to date cooling degree days 0 0  
Year to date cooling degree days 0 0  
Moisture  
Dew Point 19 °F    
Average Humidity 46    
Maximum Humidity 74    
Minimum Humidity 18    
Precipitation  
Precipitation 0.00 in 0.01 in 0.62 in (1998)
Month to date precipitation 0.26 0.23  
Year to date precipitation 0.43 0.75  
Snow  
Snow 0.00 in 0.10 in 3.50 in (1998)
Month to date snowfall 8.0 2.0  
Since 1 July snowfall 12.5 12.5  
Snow Depth 0.00 in    
Sea Level Pressure  
Sea Level Pressure 30.20 in    
Wind  
Wind Speed 11 mph (SW)    
Max Wind Speed 24 mph    
Max Gust Speed 30 mph    
Visibility 10 miles    
Events      
T = Trace of Precipitation, MM = Missing Value Source: NWS Daily Summary

Daily Weather History Graph

Daily Weather History Graph

Search for Another Location

Airport or City:

Trip Planner

Search our weather history database for the weather conditions in past years. The results will help you decide how hot, cold, wet, or windy it might be!

Date:

Astronomy

Feb. 16, 2013 Rise Set
Actual Time 7:36 AM CST 6:32 PM CST
Civil Twilight 7:09 AM CST 6:59 PM CST
Nautical Twilight 6:39 AM CST 7:29 PM CST
Astronomical Twilight 6:10 AM CST 7:58 PM CST
Moon 11:04 AM CST (2/16) 12:21 AM CST (2/16)
Length of Visible Light 11h 49m
Length of Day
10h 56m
Waxing Crescent, 39% of the Moon is Illuminated
Feb 16
Waxing Crescent
Feb 17
First Quarter
Feb 25
Full
Mar 4
Last Quarter
Mar 11
New

Hourly Weather History & Observations

Time (CST) Temp. Windchill Dew Point Humidity Pressure Visibility Wind Dir Wind Speed Gust Speed Precip Events Conditions
12:53 AM 28.0 °F 20.0 °F 18.0 °F 66% 30.39 in 10.0 mi NNW 8.1 mph - N/A   Clear
1:53 AM 26.1 °F 18.4 °F 17.1 °F 69% 30.40 in 10.0 mi West 6.9 mph - N/A   Clear
2:53 AM 24.1 °F 16.0 °F 17.1 °F 75% 30.38 in 10.0 mi West 6.9 mph - N/A   Clear
3:53 AM 25.0 °F 14.8 °F 17.1 °F 72% 30.36 in 10.0 mi West 10.4 mph - N/A   Clear
4:53 AM 25.0 °F 14.8 °F 17.1 °F 72% 30.34 in 10.0 mi West 10.4 mph - N/A   Clear
5:53 AM 26.1 °F 14.5 °F 17.1 °F 69% 30.31 in 10.0 mi West 13.8 mph - N/A   Clear
6:53 AM 27.0 °F 16.7 °F 17.1 °F 66% 30.32 in 10.0 mi WSW 11.5 mph - N/A   Clear
7:53 AM 27.0 °F 16.7 °F 18.0 °F 69% 30.32 in 10.0 mi WSW 11.5 mph - N/A   Clear
8:53 AM 32.0 °F 22.5 °F 19.0 °F 59% 30.30 in 10.0 mi WSW 12.7 mph - N/A   Clear
9:53 AM 39.0 °F 29.9 °F 21.9 °F 50% 30.27 in 10.0 mi West 17.3 mph - N/A   Clear
10:53 AM 44.1 °F 35.4 °F 21.0 °F 40% 30.25 in 10.0 mi WSW 21.9 mph - N/A   Clear
11:53 AM 48.9 °F - 21.9 °F 35% 30.21 in 10.0 mi WSW 15.0 mph - N/A   Clear
12:53 PM 54.0 °F - 21.0 °F 28% 30.18 in 10.0 mi WSW 13.8 mph - N/A   Clear
1:53 PM 57.0 °F - 17.1 °F 21% 30.13 in 10.0 mi SW 15.0 mph - N/A   Clear
2:53 PM 57.9 °F - 16.0 °F 19% 30.10 in 10.0 mi SW 15.0 mph 20.7 mph N/A   Clear
3:53 PM 59.0 °F - 15.1 °F 18% 30.08 in 10.0 mi South 15.0 mph - N/A   Clear
4:53 PM 57.9 °F - 16.0 °F 19% 30.06 in 10.0 mi South 12.7 mph - N/A   Clear
5:53 PM 55.0 °F - 19.0 °F 24% 30.05 in 10.0 mi South 10.4 mph - N/A   Clear
6:53 PM 45.0 °F 39.7 °F 23.0 °F 42% 30.07 in 10.0 mi SSE 10.4 mph - N/A   Clear
7:53 PM 42.1 °F 38.4 °F 21.9 °F 45% 30.09 in 10.0 mi ESE 5.8 mph - N/A   Clear
8:53 PM 42.1 °F 37.7 °F 19.0 °F 40% 30.07 in 10.0 mi South 6.9 mph - N/A   Clear
9:53 PM 41.0 °F 37.1 °F 18.0 °F 40% 30.04 in 10.0 mi South 5.8 mph - N/A   Clear
10:53 PM 39.0 °F 36.8 °F 19.0 °F 45% 30.03 in 10.0 mi South 3.5 mph - N/A   Clear
11:53 PM 36.0 °F 32.1 °F 19.0 °F 50% 29.99 in 10.0 mi SSW 4.6 mph - N/A   Clear